CW8164 Weather Reports


Display with metric or nautical units.
time (UTC)temp
F
wind
direction
speed
MPH
gust
MPH
rain 1hr
in
rain 24hr
in
rain mn
in
humidity
%
barometer
mb
20260903140903 54 91 0.0 5.0 0.00 0.46 0.02 91 1009.9
20260903140402 54 79 1.0 2.0 0.00 0.46 0.02 90 1009.9
20260903135903 54 63 1.0 2.0 0.00 0.46 0.02 91 1009.9
20260903135403 54 69 1.0 2.0 0.00 0.46 0.02 91 1009.8
20260903134902 54 85 0.0 2.0 0.00 0.46 0.02 90 1009.8
20260903134403 54 110 0.0 2.0 0.00 0.46 0.02 90 1009.8
20260903133403 54 78 0.0 2.0 0.00 0.46 0.02 90 1009.7
20260903132903 54 104 0.0 2.0 0.00 0.46 0.02 89 1009.8
20260903131903 55 91 1.0 3.0 0.00 0.46 0.02 87 1009.8
20260903131402 55 120 0.0 2.0 0.00 0.46 0.02 87 1009.8
20260903130403 55 108 0.0 5.0 0.00 0.46 0.02 86 1009.5
20260903125403 55 147 0.0 5.0 0.01 0.46 0.02 86 1009.6
20260903123903 55 52 1.0 3.0 0.01 0.46 0.02 87 1009.6
20260903123403 55 90 1.0 5.0 0.01 0.46 0.02 87 1009.6
20260903122903 55 92 2.0 6.0 0.01 0.46 0.02 87 1009.6
20260903122403 55 97 1.0 6.0 0.01 0.46 0.02 88 1009.7
20260903121903 54 50 1.0 3.0 0.01 0.46 0.02 89 1009.8
20260903121403 54 135 0.0 3.0 0.01 0.46 0.02 88 1009.8
20260903120903 54 72 1.0 3.0 0.01 0.46 0.02 88 1009.8
20260903115403 55 166 1.0 3.0 0.00 0.45 0.01 88 1009.8
20260903114903 55 74 1.0 5.0 0.00 0.45 0.01 88 1009.9
20260903114403 55 100 0.0 5.0 0.00 0.45 0.01 88 1009.9
20260903113902 55 84 1.0 5.0 0.00 0.45 0.01 88 1009.9
20260903113403 55 99 1.0 5.0 0.00 0.45 0.01 88 1009.8
20260903112902 55 90 1.0 6.0 0.00 0.45 0.01 89 1009.8
20260903111903 55 92 1.0 6.0 0.00 0.45 0.01 89 1009.9
20260903111403 55 124 0.0 3.0 0.00 0.45 0.01 89 1009.8
20260903110903 55 131 1.0 5.0 0.00 0.45 0.01 90 1009.8
20260903110403 55 80 2.0 5.0 0.00 0.45 0.01 89 1009.8
20260903105403 55 71 1.0 3.0 0.00 0.45 0.01 90 1009.9
20260903104402 55 75 1.0 3.0 0.00 0.45 0.01 90 1009.9
20260903103902 55 88 2.0 3.0 0.00 0.45 0.01 90 1010.0
20260903103403 55 79 0.0 5.0 0.00 0.45 0.01 90 1009.9
20260903102903 55 94 2.0 5.0 0.00 0.45 0.01 90 1009.8
20260903102404 55 106 1.0 5.0 0.00 0.45 0.01 91 1009.8
20260903101902 55 120 1.0 5.0 0.00 0.45 0.01 91 1009.8
20260903100403 54 93 1.0 3.0 0.00 0.45 0.01 91 1009.7
20260903095903 55 102 1.0 5.0 0.00 0.45 0.01 91 1009.6
20260903095403 55 90 1.0 5.0 0.00 0.45 0.01 91 1009.7
20260903094903 55 112 1.0 2.0 0.00 0.45 0.01 90 1009.7
20260903094402 55 72 0.0 2.0 0.01 0.45 0.01 90 1009.7
20260903093903 55 108 0.0 2.0 0.01 0.45 0.01 90 1009.6
20260903093403 55 100 1.0 6.0 0.01 0.45 0.01 90 1009.7
20260903092903 55 76 1.0 6.0 0.01 0.45 0.01 90 1009.7
20260903091903 55 70 0.0 3.0 0.01 0.45 0.01 90 1009.9
20260903091403 55 101 1.0 3.0 0.01 0.45 0.01 90 1009.9
20260903090903 55 100 1.0 3.0 0.01 0.45 0.01 90 1009.8
20260903090403 55 115 2.0 3.0 0.01 0.45 0.01 90 1009.8
20260903085403 55 82 0.0 5.0 0.01 0.45 0.01 90 1009.7
20260903084903 55 83 0.0 5.0 0.01 0.45 0.01 90 1009.8
20260903084402 55 69 1.0 3.0 0.00 0.44 0.00 90 1009.8
20260903083903 55 16 0.0 2.0 0.00 0.44 0.00 90 1009.8
20260903083403 55 55 1.0 5.0 0.00 0.44 0.00 90 1009.9
20260903082903 55 52 0.0 5.0 0.00 0.44 0.00 90 1009.8
20260903082402 55 66 0.0 6.0 0.00 0.44 0.00 90 1009.9
20260903081403 55 65 1.0 3.0 0.00 0.44 0.00 90 1009.9
20260903080903 55 99 1.0 3.0 0.00 0.44 0.00 90 1009.9
20260903075903 56 146 0.0 6.0 0.00 0.44 0.00 90 1009.9
20260903075403 56 55 2.0 6.0 0.00 0.44 0.00 90 1010.0
20260903074903 56 112 0.0 6.0 0.00 0.44 0.00 90 1009.9
20260903074403 56 129 0.0 6.0 0.00 0.44 0.00 90 1010.0
20260903073903 56 88 2.0 6.0 0.00 0.44 0.00 90 1009.9
20260903073403 56 112 0.0 5.0 0.00 0.44 0.00 90 1009.8
20260903072903 56 78 0.0 5.0 0.00 0.44 0.00 90 1009.8
20260903072402 56 123 1.0 5.0 0.00 0.44 0.00 90 1009.9
20260903071903 56 113 1.0 3.0 0.00 0.44 0.00 90 1009.8
20260903071403 56 40 0.0 3.0 0.01 0.44 0.00 90 1009.8
20260903070403 56 103 0.0 5.0 0.01 0.44 0.00 90 1009.7
20260903065903 56 232 1.0 5.0 0.01 0.44 0.44 90 1009.7
20260903065403 56 200 2.0 3.0 0.01 0.44 0.44 91 1009.7
20260903064903 56 326 0.0 6.0 0.01 0.44 0.44 90 1009.7
20260903064403 56 147 2.0 7.0 0.01 0.44 0.44 90 1009.6
20260903063903 56 94 2.0 7.0 0.01 0.44 0.44 90 1009.6
20260903063403 56 67 2.0 5.0 0.01 0.44 0.44 91 1009.6
20260903062903 56 72 1.0 2.0 0.01 0.44 0.44 91 1009.6
20260903062403 56 67 0.0 1.0 0.01 0.44 0.44 91 1009.7
20260903061903 56 30 0.0 2.0 0.01 0.44 0.44 91 1009.7
20260903061403 56 71 0.0 2.0 0.00 0.43 0.43 91 1009.7
20260903060403 56 47 0.0 3.0 0.00 0.43 0.43 91 1009.5
20260903055903 56 68 1.0 3.0 0.00 0.43 0.43 91 1009.5
20260903055403 56 96 0.0 2.0 0.00 0.43 0.43 91 1009.6
20260903054903 56 83 0.0 2.0 0.00 0.43 0.43 91 1009.7
20260903054403 56 112 0.0 3.0 0.00 0.43 0.43 91 1009.8
20260903053403 56 65 0.0 2.0 0.00 0.43 0.43 92 1009.7
20260903052903 56 65 1.0 2.0 0.00 0.43 0.43 91 1009.7
20260903052402 56 359 0.0 3.0 0.00 0.43 0.43 91 1009.7
20260903051903 56 78 1.0 3.0 0.00 0.43 0.43 92 1009.7
20260903050403 56 65 0.0 2.0 0.01 0.43 0.43 92 1009.5
20260903045903 56 39 0.0 1.0 0.01 0.43 0.43 92 1009.6
20260903045403 57 71 0.0 0.0 0.01 0.43 0.43 92 1009.5
20260903044903 57 73 0.0 2.0 0.01 0.43 0.43 92 1009.4
20260903043403 57 73 0.0 1.0 0.01 0.43 0.43 91 1009.1
20260903042903 57 53 0.0 5.0 0.01 0.43 0.43 91 1009.1
20260903042403 57 35 0.0 6.0 0.01 0.43 0.43 91 1009.0
20260903041903 57 107 2.0 7.0 0.01 0.43 0.43 91 1009.0
20260903041403 57 265 1.0 7.0 0.00 0.42 0.42 92 1008.9
20260903040902 57 163 1.0 9.0 0.00 0.42 0.42 92 1008.9
20260903035903 58 132 0.0 5.0 0.00 0.42 0.42 92 1008.9
20260903034403 58 124 1.0 5.0 0.01 0.42 0.42 92 1008.7
20260903033903 58 109 1.0 5.0 0.01 0.42 0.42 92 1008.7
20260903033402 58 95 1.0 5.0 0.01 0.42 0.42 92 1008.7
20260903032902 58 123 0.0 3.0 0.01 0.42 0.42 92 1008.6
20260903032402 58 151 1.0 3.0 0.01 0.42 0.42 92 1008.5
20260903031903 58 104 1.0 3.0 0.01 0.42 0.42 92 1008.5
20260903031403 58 98 0.0 3.0 0.01 0.42 0.42 92 1008.5
20260903030902 58 110 2.0 3.0 0.01 0.42 0.42 92 1008.3
20260903030403 58 120 2.0 5.0 0.01 0.42 0.42 92 1008.3
20260903025903 58 124 0.0 6.0 0.01 0.42 0.42 92 1008.3
20260903025403 58 118 1.0 6.0 0.01 0.42 0.42 92 1008.2
20260903024903 58 130 2.0 6.0 0.01 0.41 0.41 92 1008.3
20260903024403 58 178 0.0 3.0 0.01 0.41 0.41 92 1008.2
20260903023403 58 130 0.0 2.0 0.01 0.41 0.41 92 1008.1
20260903022902 58 155 1.0 2.0 0.01 0.41 0.41 92 1008.2
20260903022403 58 111 1.0 2.0 0.01 0.41 0.41 92 1008.1
20260903021903 58 145 1.0 7.0 0.01 0.41 0.41 92 1008.1
20260903021403 58 141 1.0 7.0 0.01 0.41 0.41 92 1008.0
20260903020902 59 128 1.0 3.0 0.01 0.41 0.41 92 1007.8
20260903020403 59 144 0.0 2.0 0.02 0.41 0.41 92 1007.9
20260903015903 59 138 0.0 2.0 0.02 0.41 0.41 92 1007.9
20260903015402 59 144 0.0 2.0 0.02 0.41 0.41 92 1007.8
20260903014903 59 150 0.0 2.0 0.01 0.40 0.40 92 1007.6
20260903014403 59 79 0.0 2.0 0.01 0.40 0.40 92 1007.7
20260903013403 59 149 0.0 2.0 0.02 0.40 0.40 91 1007.6
20260903012903 59 355 0.0 1.0 0.02 0.40 0.40 92 1007.7
20260903012403 59 178 0.0 3.0 0.02 0.40 0.40 92 1007.6
20260903011903 59 109 0.0 3.0 0.02 0.40 0.40 91 1007.6
20260903011403 59 195 0.0 2.0 0.02 0.40 0.40 92 1007.6
20260903005903 60 196 0.0 2.0 0.02 0.39 0.39 92 1007.3
20260903004903 60 141 0.0 5.0 0.02 0.39 0.39 92 1007.2
20260903004402 60 154 2.0 5.0 0.02 0.39 0.39 92 1007.2
20260903003903 60 109 0.0 2.0 0.03 0.39 0.39 92 1007.2
20260903003403 60 166 0.0 2.0 0.02 0.38 0.38 92 1007.2
20260903001903 59 72 0.0 2.0 0.03 0.38 0.38 92 1007.2
20260903001403 59 166 0.0 2.0 0.03 0.38 0.38 92 1007.3
20260903000914 59 77 0.0 2.0 0.03 0.38 0.38 92 1007.1
20260903000403 59 156 0.0 2.0 0.02 0.37 0.37 92 1007.1
20260902235403 59 97 0.0 3.0 0.03 0.37 0.37 91 1007.2
20260902234903 59 8 0.0 3.0 0.03 0.37 0.37 92 1007.2
20260902234403 59 158 0.0 7.0 0.03 0.37 0.37 92 1007.1
20260902233903 59 148 2.0 7.0 0.02 0.36 0.36 91 1007.2
20260902232903 59 151 1.0 7.0 0.03 0.36 0.36 91 1007.1
20260902232403 59 293 0.0 7.0 0.03 0.36 0.36 91 1007.0
20260902231903 59 83 0.0 8.0 0.02 0.35 0.35 91 1006.9
20260902231403 59 144 2.0 8.0 0.03 0.35 0.35 91 1006.9
20260902230903 59 136 2.0 8.0 0.03 0.35 0.35 90 1006.8
20260902230403 59 144 1.0 5.0 0.03 0.35 0.35 90 1006.8
20260902225903 59 158 1.0 9.0 0.04 0.35 0.35 91 1006.9
20260902225402 59 131 2.0 9.0 0.03 0.34 0.34 91 1006.8
20260902224403 59 123 2.0 6.0 0.04 0.34 0.34 91 1006.8
20260902223903 59 134 1.0 7.0 0.04 0.34 0.34 91 1006.8
20260902223403 59 117 1.0 7.0 0.03 0.33 0.33 91 1006.8
20260902221903 58 97 3.0 7.0 0.04 0.33 0.33 91 1006.8
20260902220903 58 93 2.0 5.0 0.04 0.32 0.32 91 1006.8
20260902220403 58 100 1.0 7.0 0.05 0.32 0.32 91 1006.8
20260902215403 58 136 1.0 6.0 0.05 0.31 0.31 91 1006.8
20260902214904 58 91 2.0 7.0 0.05 0.31 0.31 91 1006.8
20260902213903 58 136 2.0 7.0 0.06 0.30 0.30 91 1006.8
20260902213403 58 86 2.0 6.0 0.06 0.30 0.30 91 1006.7
20260902212904 58 149 2.0 8.0 0.06 0.29 0.29 91 1006.8
20260902212404 58 81 3.0 8.0 0.07 0.29 0.29 91 1006.7
20260902211902 59 74 2.0 7.0 0.07 0.29 0.29 91 1006.7
20260902211403 59 113 1.0 7.0 0.07 0.28 0.28 91 1006.6
20260902210903 59 128 3.0 6.0 0.07 0.28 0.28 91 1006.6
20260902210403 59 121 1.0 5.0 0.07 0.27 0.27 91 1006.6
20260902205903 59 110 1.0 5.0 0.08 0.27 0.27 91 1006.5
20260902205403 59 107 1.0 7.0 0.07 0.26 0.26 91 1006.5
20260902204903 59 156 1.0 7.0 0.08 0.26 0.26 91 1006.5
20260902204403 59 87 2.0 7.0 0.08 0.25 0.25 91 1006.4
20260902203903 59 75 1.0 6.0 0.07 0.24 0.24 92 1006.4
20260902202903 58 109 1.0 5.0 0.07 0.23 0.23 91 1006.2
20260902202403 58 88 2.0 5.0 0.07 0.22 0.22 90 1006.4
20260902201903 59 132 0.0 2.0 0.08 0.22 0.22 90 1006.4
20260902201403 59 117 0.0 3.0 0.07 0.21 0.21 90 1006.5
20260902200903 59 163 0.0 6.0 0.08 0.21 0.21 89 1006.4
20260902200403 59 96 1.0 6.0 0.07 0.20 0.20 89 1006.5
20260902195903 59 148 2.0 3.0 0.07 0.19 0.19 89 1006.4
20260902194902 59 106 2.0 5.0 0.07 0.18 0.18 89 1006.5
20260902194402 59 83 0.0 3.0 0.07 0.17 0.17 90 1006.6
20260902193903 59 94 0.0 3.0 0.08 0.17 0.17 88 1006.5
20260902193403 59 104 0.0 5.0 0.08 0.16 0.16 89 1006.7
20260902192903 59 105 3.0 5.0 0.08 0.16 0.16 88 1006.7
20260902192403 59 84 1.0 5.0 0.08 0.15 0.15 88 1006.8
20260902191403 59 91 0.0 2.0 0.09 0.14 0.14 90 1007.0
20260902190903 59 101 0.0 3.0 0.09 0.13 0.13 90 1007.0
20260902190402 59 81 1.0 3.0 0.10 0.13 0.13 89 1007.1
20260902185403 59 100 1.0 3.0 0.09 0.11 0.11 88 1007.3
20260902184403 59 137 0.0 1.0 0.09 0.10 0.10 88 1007.4
20260902183902 60 105 0.0 1.0 0.08 0.09 0.09 86 1007.6
20260902182903 60 347 0.0 2.0 0.08 0.08 0.08 86 1007.6
20260902182403 60 243 0.0 2.0 0.07 0.07 0.07 87 1007.5
20260902181903 60 202 1.0 2.0 0.06 0.06 0.06 88 1007.5
20260902181403 60 298 0.0 0.0 0.05 0.05 0.05 86 1007.3
20260902180903 61 311 0.0 0.0 0.04 0.04 0.04 86 1007.2
20260902175904 61 307 0.0 0.0 0.02 0.02 0.02 85 1007.2
20260902175403 62 306 0.0 0.0 0.02 0.02 0.02 82 1007.0
20260902174903 62 333 0.0 0.0 0.01 0.01 0.01 79 1007.0
20260902174403 63 330 0.0 0.0 0.01 0.01 0.01 78 1007.0
20260902173903 64 321 0.0 0.0 0.01 0.01 0.01 76 1006.9
20260902173403 64 346 0.0 1.0 0.00 0.00 0.00 73 1006.8
20260902172903 65 351 0.0 1.0 0.00 0.00 0.00 70 1006.8
20260902172403 65 207 0.0 2.0 0.00 0.00 0.00 69 1006.8
20260902171403 66 230 0.0 2.0 0.00 0.00 0.00 64 1006.7
20260902170902 65 129 0.0 2.0 0.00 0.00 0.00 63 1006.7
20260902170403 65 74 1.0 3.0 0.00 0.00 0.00 63 1006.7
20260902165903 65 61 1.0 3.0 0.00 0.00 0.00 64 1006.7
20260902165403 65 85 0.0 3.0 0.00 0.00 0.00 64 1006.6
20260902164903 65 302 0.0 3.0 0.00 0.00 0.00 64 1006.6
20260902164403 65 187 1.0 5.0 0.00 0.00 0.00 64 1006.6
20260902163903 65 124 1.0 5.0 0.00 0.00 0.00 64 1006.6
20260902163403 65 69 1.0 5.0 0.00 0.00 0.00 66 1006.7
20260902162903 64 148 0.0 1.0 0.00 0.00 0.00 67 1006.7
20260902162403 64 284 0.0 3.0 0.00 0.00 0.00 67 1006.7
20260902161903 64 200 0.0 6.0 0.00 0.00 0.00 67 1006.7
20260902161403 64 63 2.0 6.0 0.00 0.00 0.00 67 1006.7
20260902160903 64 59 1.0 5.0 0.00 0.00 0.00 67 1006.7
20260902160403 64 40 1.0 6.0 0.00 0.00 0.00 67 1006.8
20260902155903 64 163 1.0 7.0 0.00 0.00 0.00 66 1006.7
20260902155403 64 30 1.0 7.0 0.00 0.00 0.00 67 1006.7
20260902154904 64 87 1.0 6.0 0.00 0.00 0.00 68 1006.7
20260902153903 64 99 1.0 6.0 0.00 0.00 0.00 68 1006.9
20260902152903 63 108 0.0 3.0 0.00 0.00 0.00 69 1007.0
20260902152403 63 85 1.0 5.0 0.00 0.00 0.00 71 1007.1
20260902151403 62 121 0.0 2.0 0.00 0.00 0.00 72 1007.1
20260902150403 62 102 0.0 3.0 0.00 0.00 0.00 71 1007.3
20260902145903 62 97 1.0 5.0 0.00 0.00 0.00 72 1007.3
20260902145403 62 89 1.0 5.0 0.00 0.00 0.00 72 1007.4
20260902144903 62 108 1.0 6.0 0.00 0.00 0.00 72 1007.5
20260902144403 62 80 0.0 6.0 0.00 0.00 0.00 73 1007.5
20260902143403 61 90 0.0 3.0 0.00 0.00 0.00 72 1007.7
20260902142903 61 96 0.0 3.0 0.00 0.00 0.00 73 1007.8
20260902142402 61 88 0.0 3.0 0.00 0.00 0.00 73 1007.8
20260902141903 61 88 2.0 3.0 0.00 0.00 0.00 72 1007.9